Regional Weather Roundup
Issued by NWS Columbia, SC

Home | Current Version | Previous Version | Text Only | Print | Product List | Glossary On
Versions: 1 2 3 4 5 6 7 8 9 10 11 12 13 14 15 16 17 18 19 20 21 22 23 24 25 26 27 28 29 30 31 32 33 34 35 36 37 38 39 40 41 42 43 44 45 46 47 48 49 50
000
ASUS42 KCAE 300710
RWRCAE
REGIONAL WEATHER ROUNDUP
NATIONAL WEATHER SERVICE COLUMBIA SC
300 AM EDT SAT APR 30 2016

NOTE: "FAIR" INDICATES FEW OR NO CLOUDS BELOW 12,000 FEET WITH NO
SIGNIFICANT WEATHER AND/OR OBSTRUCTIONS TO VISIBILITY.

NOT ALL STATIONS ARE QUALITY CONTROLLED BY THE NATIONAL
WEATHER SERVICE. USE DATA WITH CAUTION...ESPECIALLY
DEWPOINT OBSERVATIONS.

SCZ001>056-GAZ040-063>065-077-300800-
...UPSTATE SOUTH CAROLINA...

CITY           SKY/WX    TMP DP  RH WIND       PRES   REMARKS
ANDERSON       CLEAR     61  57  87 NE5       29.95F
LIBERTY          N/A     57  55  94 NE5       29.96F
SPARTANBURG    CLOUDY    66  50  55 N3        29.97F
CLEMSON        PTCLDY    66  59  78 N3        29.97F
GREENVILLE     PTCLDY    69  49  48 NE3       29.98F
GREENWOOD      CLEAR     62  55  77 CALM      29.98S
GREER          PTCLDY    67  49  52 NE5       29.97F
ROCK HILL      MOCLDY    62  58  86 CALM      29.98F
CHESTER        CLOUDY    63  55  77 CALM      29.98F
LAURENS        SUNNY     64  55  72 SE5       29.98R


...CENTRAL SOUTH CAROLINA...

CITY           SKY/WX    TMP DP  RH WIND       PRES   REMARKS
COLUMBIA APT   PTCLDY    69  61  75 S5        29.97S
COLUMBIA OWENS CLEAR     69  62  78 CALM      29.98S
MCENTIRE ANGB  CLEAR     63  61  93 CALM      29.98S
ORANGEBURG     PTCLDY    65  63  93 CALM      29.97F FOG
SUMTER SHAW    CLEAR     67  64  91 SE5       29.96S
NEWBERRY       MOSUNNY   68  59  73 S5        29.99S
AIKEN          FAIR      63  59  88 SE5       30.00F
BARNWELL       PTSUNNY   66  66 100 CALM      29.97F
CAMDEN         FAIR      68  63  83 CALM      29.98F
LANCASTER      MOSUNNY   64  63  94 NW5       29.99R
WINNSBORO      SUNNY     66  59  77 S5        29.97F


...EASTERN AND COASTAL SOUTH CAROLINA...

CITY           SKY/WX    TMP DP  RH WIND       PRES   REMARKS
MYRTLE BEACH   CLEAR     70  61  73 S6        30.01F
N MYRTLE BCH   CLEAR     68  65  90 S3        29.99F
CONWAY         FAIR      61  59  94 CALM      30.00S FOG
MARION         CLOUDY    64  64 100 S5        30.00F FOG
HARTSVILLE     CLOUDY    66  64  94 S6        29.98F
FLORENCE       CLOUDY    68  66  93 S6        29.99F
CHARLESTON APT CLEAR     68  66  93 CALM      29.98S
MOUNT PLEASANT FAIR      66  64  94 CALM      29.98F FOG
WALTERBORO     FOG       72  72 100 E3        29.98F VSB<1/4
BEAUFORT       PTCLDY    73  71  93 SE3       29.97S FOG


...EASTERN GEORGIA...

CITY           SKY/WX    TMP DP  RH WIND       PRES   REMARKS
AUGUSTA BUSH F CLEAR     64  62  93 CALM      29.95F
AUGUSTA DANIEL CLEAR     70  61  73 SE6       29.97F
THOMSON        PTCLDY    64  64  99 CALM      29.99F
WASHINGTON     FAIR      61  55  82 CALM      29.95F
CLAXTON        FAIR      64  63  97 CALM      29.96F
SYLVANIA       SUNNY     65  65  98 CALM      29.97F
STATESBORO     CLEAR     66  65  96 CALM      29.96F
SAVANNAH       CLEAR     69  66  90 CALM      29.97S FOG


...SOUTHERN NORTH CAROLINA...

CITY           SKY/WX    TMP DP  RH WIND       PRES   REMARKS
CHARLOTTE      PTCLDY    67  54  63 SE3       29.99S
MONROE         CLOUDY    64  57  78 S5        29.98F
WADESBORO      PTSUNNY   66  60  81 CALM      30.00R
ROCKINGHAM     MOSUNNY   67  65  93 S7        29.99S
RUTHERFORDTON  CLOUDY    66  50  56 N3        29.99F
ASHEVILLE      MOCLDY    60  52  74 CALM      30.03F

$$



USA.gov is the U.S. government's official web portal to all federal, state and local government web resources and services.